sat.trackr.live / text

‹ back to catalog

PRAETORIAN SDA_607

NORAD 65570 · 2025-203F

PAYLOAD ACTIVE UNKNOWN

§ Identity

Operator
Country
US
Launch date
2025-09-10
Launch site
AFWTR
Launch vehicle
Mass (kg)
RCS (m²)

Purposes: military

External: N2YO · Heavens-Above · Gunter

§ Orbital elements

Epoch: 2026-09-19T19:31:16.557312Z

Period
104.06 min
Inclination
81.3004°
Eccentricity
0.0007921
Mean motion
13.83764741 rev/d
Perigee alt
944.8 km
Apogee alt
956.4 km
Semi-major
7,328.7 km
B*
1.3066e-4
RAAN
283.0744°
Arg perigee
298.8479°
Mean anomaly
61.1882°
Rev number
5,179

§ Raw data

PRAETORIAN SDA_6071 65570U 25203F   26262.81338608  .00000156  00000+0  13066-3 0  99902 65570  81.3004 283.0744 0007921 298.8479  61.1882 13.83764741 51797

JSON: /api/v1/satellites/65570 · /tle

For live sub-satellite position, see the globe view (requires WebGL).

§ Visibility from observer

Set your observer location to see the next 7 days of passes ≥ 10°. The values pass through the URL so the page stays shareable.

No JS? Fill the form by hand. The geolocation button needs JavaScript.